Tracking 19563 objects as of 20-Mar-2019
HD Live streaming from Space Station
objects crossing your sky now

RADUGA 4

Track RADUGA 4 now!
RADUGA 4 is classified as:


NORAD ID: 10987
Int'l Code: 1978-073A
Perigee: 35,747.5 km
Apogee: 35,852.3 km
Inclination: 11.1 °
Period: 1,436.4 minutes
Semi major axis: 42170 km
RCS: 1 m2 (large)
Launch date: July 18, 1978
Source: Commonwealth of Independent States (former USSR) (CIS)
Launch site: TYURATAM MISSILE AND SPACE COMPLEX (TTMTR)
aabbcc
Your satellite tracking list
Your tracking list is empty




NASA's NSSDC Master Catalog

Two Line Element Set (TLE):
1 10987U 78073A   19078.59435472 -.00000376 +00000-0 +00000-0 0  9991
2 10987 011.0559 311.3989 0012427 334.0598 214.8241 01.00249984093067
Source of the keplerian elements: AFSPC